Humidity-temperature Sensor

Selected Measurement Type: Air Temperature

 
Air Temperature [°C]     6 entries per hour
Showing data from 12/12/2022 (00:00:00 Z) to 12/5/2022 (00:01:00 Z)
Previous Next [ Day | 3-Days | 7-Days ]
First Last
Prev [ Day | 3-Days | 7-Days ] Next
First Last

Start Time:     :
End Time:     :     
Time (in GMT) :00 :50 :40 :30 :20 :10
Previous Next [ Day | 3-Days | 7-Days ]
First Last
Prev [ Day | 3-Days | 7-Days ] Next
First Last


123 => good data
MM => data is determined as missing
-- => data not received/configured
Back to Top Back to Top
12/12/2022 00:00 to 23:10 24.62 24.76 24.76 24.59 24.53 24.73
12/11/2022 23:00 to 22:10 24.75 24.75 24.70 24.85 25.07 25.03
12/11/2022 22:00 to 21:10 24.87 24.96 24.51 24.52 24.32 24.42
12/11/2022 21:00 to 20:10 24.43 24.17 24.23 24.33 24.41 24.27
12/11/2022 20:00 to 19:10 24.38 24.45 24.57 24.45 24.32 24.16
12/11/2022 19:00 to 18:10 24.30 24.50 24.41 24.53 24.43 24.47
12/11/2022 18:00 to 17:10 24.55 24.69 24.60 24.85 24.94 24.79
12/11/2022 17:00 to 16:10 24.58 24.91 24.97 24.92 24.92 25.59
12/11/2022 16:00 to 15:10 25.39 25.53 25.91 25.09 25.18 25.24
12/11/2022 15:00 to 14:10 25.05 24.93 25.06 25.43 25.71 25.53
12/11/2022 14:00 to 13:10 25.62 25.56 25.46 25.45 25.36 25.38
12/11/2022 13:00 to 12:10 25.44 25.58 25.45 25.48 25.44 25.29
12/11/2022 12:00 to 11:10 25.27 25.28 25.38 25.28 25.32 25.11
12/11/2022 11:00 to 10:10 25.18 25.13 25.16 25.10 24.87 25.10
12/11/2022 10:00 to 9:10 25.09 24.83 24.86 24.99 24.88 24.80
12/11/2022 09:00 to 8:10 24.81 24.79 24.96 24.94 25.02 24.98
12/11/2022 08:00 to 7:10 25.10 25.18 25.04 25.07 25.18 25.15
12/11/2022 07:00 to 6:10 25.16 25.23 25.23 25.22 25.51 25.49
12/11/2022 06:00 to 5:10 25.29 25.40 25.20 24.98 25.25 25.06
12/11/2022 05:00 to 4:10 25.06 25.19 25.01 24.91 24.73 24.70
12/11/2022 04:00 to 3:10 24.79 24.83 24.90 24.77 24.74 24.82
12/11/2022 03:00 to 2:10 24.91 24.91 24.88 24.99 24.97 24.68
12/11/2022 02:00 to 1:10 24.84 24.55 24.59 24.65 24.51 24.52
12/11/2022 01:00 to 0:10 24.56 24.54 24.33 24.40 24.18 24.09
12/11/2022 00:00 to 23:10 24.24 24.31 24.24 24.39 24.38 24.23
12/10/2022 23:00 to 22:10 24.53 24.36 24.41 24.27 24.54 24.50
12/10/2022 22:00 to 21:10 24.42 24.56 24.21 24.45 24.64 24.46
12/10/2022 21:00 to 20:10 24.37 24.22 24.29 24.53 24.49 24.33
12/10/2022 20:00 to 19:10 24.59 24.27 24.65 24.68 24.67 24.64
12/10/2022 19:00 to 18:10 24.42 24.30 24.37 24.14 24.18 24.23
12/10/2022 18:00 to 17:10 24.41 24.36 24.44 24.21 24.22 24.47
12/10/2022 17:00 to 16:10 24.52 24.10 24.16 24.56 24.56 24.71
12/10/2022 16:00 to 15:10 24.84 24.65 24.77 24.43 24.51 24.59
12/10/2022 15:00 to 14:10 24.45 24.39 24.61 24.21 24.38 24.08
12/10/2022 14:00 to 13:10 24.04 24.16 24.55 24.54 24.64 24.68
12/10/2022 13:00 to 12:10 24.72 24.46 24.54 24.32 24.38 24.54
12/10/2022 12:00 to 11:10 24.52 24.21 24.27 24.06 23.98 23.66
12/10/2022 11:00 to 10:10 23.83 23.66 24.03 23.99 24.10 24.00
12/10/2022 10:00 to 9:10 23.99 23.95 24.07 24.05 23.95 24.06
12/10/2022 09:00 to 8:10 24.31 24.34 24.21 24.22 24.09 24.13
12/10/2022 08:00 to 7:10 24.19 24.13 24.03 23.90 23.97 24.06
12/10/2022 07:00 to 6:10 24.20 24.34 24.37 24.28 24.41 24.41
12/10/2022 06:00 to 5:10 24.59 24.38 24.44 24.42 24.43 24.63
12/10/2022 05:00 to 4:10 24.58 24.67 24.70 24.69 24.73 24.62
12/10/2022 04:00 to 3:10 24.73 24.63 24.52 24.69 24.54 24.63
12/10/2022 03:00 to 2:10 24.56 24.68 24.66 25.06 24.79 24.77
12/10/2022 02:00 to 1:10 24.63 24.74 24.71 24.77 25.00 24.72
12/10/2022 01:00 to 0:10 24.85 24.96 24.69 24.83 24.73 24.71
12/10/2022 00:00 to 23:10 24.62 24.89 24.93 24.96 24.85 24.63
12/9/2022 23:00 to 22:10 24.87 24.75 24.77 24.62 24.78 25.10
12/9/2022 22:00 to 21:10 25.45 25.15 25.23 25.28 25.56 25.54
12/9/2022 21:00 to 20:10 25.35 25.17 25.30 25.06 25.18 25.10
12/9/2022 20:00 to 19:10 25.08 24.85 24.84 24.90 24.81 24.77
12/9/2022 19:00 to 18:10 24.85 24.95 24.98 25.25 25.84 25.59
12/9/2022 18:00 to 17:10 25.47 25.38 25.36 25.28 25.36 25.22
12/9/2022 17:00 to 16:10 25.05 24.97 24.76 24.68 24.53 24.18
12/9/2022 16:00 to 15:10 24.23 24.70 24.78 24.61 24.55 24.39
12/9/2022 15:00 to 14:10 24.62 25.04 25.61 25.82 25.68 25.62
12/9/2022 14:00 to 13:10 25.58 25.57 25.54 25.48 25.40 25.33
12/9/2022 13:00 to 12:10 25.43 25.35 25.35 25.28 25.28 25.34
12/9/2022 12:00 to 11:10 25.11 25.16 25.11 25.13 25.01 24.83
12/9/2022 11:00 to 10:10 24.74 24.80 24.73 24.89 24.42 24.55
12/9/2022 10:00 to 9:10 24.70 24.62 24.62 24.48 24.35 24.79
12/9/2022 09:00 to 8:10 24.78 24.84 24.87 24.81 24.80 24.61
12/9/2022 08:00 to 7:10 24.57 24.53 24.72 24.62 25.20 25.09
12/9/2022 07:00 to 6:10 25.14 25.06 25.02 25.05 24.98 25.13
12/9/2022 06:00 to 5:10 24.97 24.90 24.81 24.88 24.99 25.10
12/9/2022 05:00 to 4:10 25.03 24.90 25.01 24.86 25.00 24.88
12/9/2022 04:00 to 3:10 24.82 24.72 24.77 24.63 24.46 24.48
12/9/2022 03:00 to 2:10 24.44 24.43 24.46 24.38 24.14 24.17
12/9/2022 02:00 to 1:10 24.37 24.08 24.09 23.95 24.00 23.76
12/9/2022 01:00 to 0:10 23.63 23.53 23.55 23.75 23.74 23.97
12/9/2022 00:00 to 23:10 23.93 23.97 24.08 24.01 23.91 24.00
12/8/2022 23:00 to 22:10 23.85 23.94 24.11 24.33 24.27 24.40
12/8/2022 22:00 to 21:10 24.18 24.22 24.01 24.14 24.19 24.21
12/8/2022 21:00 to 20:10 24.00 24.01 23.80 23.73 23.81 23.75
12/8/2022 20:00 to 19:10 23.52 23.46 23.37 23.27 23.26 22.87
12/8/2022 19:00 to 18:10 22.91 23.05 23.29 24.20 24.55 24.52
12/8/2022 18:00 to 17:10 24.55 24.59 24.58 24.52 24.52 24.35
12/8/2022 17:00 to 16:10 24.14 24.07 24.32 24.71 24.66 24.85
12/8/2022 16:00 to 15:10 25.19 25.31 25.22 25.14 25.18 25.28
12/8/2022 15:00 to 14:10 25.46 25.42 25.35 25.18 25.39 25.54
12/8/2022 14:00 to 13:10 25.56 25.31 25.48 25.29 25.38 25.44
12/8/2022 13:00 to 12:10 25.27 25.46 25.28 25.47 25.58 25.48
12/8/2022 12:00 to 11:10 25.37 25.55 25.51 25.23 25.16 25.34
12/8/2022 11:00 to 10:10 25.28 25.20 25.21 25.25 25.14 25.07
12/8/2022 10:00 to 9:10 25.07 25.12 25.13 25.12 25.12 25.08
12/8/2022 09:00 to 8:10 24.96 25.19 24.92 25.01 25.15 25.00
12/8/2022 08:00 to 7:10 25.12 24.79 25.03 24.98 25.10 25.09
12/8/2022 07:00 to 6:10 25.05 24.93 24.93 25.02 24.90 25.05
12/8/2022 06:00 to 5:10 25.08 24.95 25.02 24.92 24.97 25.08
12/8/2022 05:00 to 4:10 25.09 25.01 25.05 25.07 24.86 24.83
12/8/2022 04:00 to 3:10 24.88 24.73 24.79 24.74 24.83 24.91
12/8/2022 03:00 to 2:10 24.76 24.81 24.73 24.66 24.47 24.72
12/8/2022 02:00 to 1:10 24.49 24.53 24.33 24.57 24.47 24.61
12/8/2022 01:00 to 0:10 24.57 24.74 24.41 24.44 24.54 24.32
12/8/2022 00:00 to 23:10 24.19 24.36 24.32 24.13 24.38 24.29
12/7/2022 23:00 to 22:10 24.33 24.47 24.61 24.48 25.26 25.36
12/7/2022 22:00 to 21:10 25.49 25.28 25.16 25.11 25.11 25.30
12/7/2022 21:00 to 20:10 25.02 25.09 24.93 24.88 24.94 24.94
12/7/2022 20:00 to 19:10 24.61 24.38 24.47 24.46 24.36 24.58
12/7/2022 19:00 to 18:10 24.61 24.60 24.74 24.88 24.93 24.95
12/7/2022 18:00 to 17:10 24.92 25.37 25.46 25.40 25.32 25.17
12/7/2022 17:00 to 16:10 25.38 25.38 25.34 25.43 25.41 25.25
12/7/2022 16:00 to 15:10 25.34 25.41 25.31 25.11 25.00 24.97
12/7/2022 15:00 to 14:10 24.74 24.50 24.71 24.49 24.57 24.65
12/7/2022 14:00 to 13:10 24.81 24.99 25.32 25.37 25.45 25.40
12/7/2022 13:00 to 12:10 25.36 25.30 25.29 25.27 25.44 25.33
12/7/2022 12:00 to 11:10 25.15 25.27 25.26 25.38 25.22 25.35
12/7/2022 11:00 to 10:10 25.20 25.10 25.11 24.97 24.83 25.11
12/7/2022 10:00 to 9:10 24.98 24.85 24.93 24.97 24.60 24.71
12/7/2022 09:00 to 8:10 24.66 24.86 24.59 24.72 24.74 25.12
12/7/2022 08:00 to 7:10 25.04 24.97 24.98 24.89 25.10 25.01
12/7/2022 07:00 to 6:10 24.91 25.09 24.88 24.91 25.05 24.78
12/7/2022 06:00 to 5:10 24.79 25.45 25.45 25.84 25.56 25.44
12/7/2022 05:00 to 4:10 25.50 25.44 25.43 25.32 25.49 25.33
12/7/2022 04:00 to 3:10 25.58 25.51 25.54 25.72 25.72 25.91
12/7/2022 03:00 to 2:10 25.74 25.64 25.72 25.89 25.87 25.79
12/7/2022 02:00 to 1:10 25.89 25.75 26.11 25.80 25.89 25.85
12/7/2022 01:00 to 0:10 26.02 25.88 25.82 25.79 25.83 25.82
12/7/2022 00:00 to 23:10 25.95 25.67 25.52 25.65 25.71 25.74
12/6/2022 23:00 to 22:10 25.83 25.85 25.84 25.80 26.12 25.86
12/6/2022 22:00 to 21:10 25.83 25.89 26.06 26.07 25.66 25.60
12/6/2022 21:00 to 20:10 25.68 25.83 25.84 25.48 25.80 25.68
12/6/2022 20:00 to 19:10 25.50 25.66 25.66 25.53 25.54 25.39
12/6/2022 19:00 to 18:10 25.39 25.12 25.57 25.95 25.75 25.96
12/6/2022 18:00 to 17:10 25.96 26.30 25.89 25.85 26.03 26.02
12/6/2022 17:00 to 16:10 25.88 25.91 25.83 25.75 25.61 25.83
12/6/2022 16:00 to 15:10 25.70 25.62 25.62 25.58 25.47 25.52
12/6/2022 15:00 to 14:10 25.54 25.49 25.35 25.48 25.61 25.31
12/6/2022 14:00 to 13:10 25.11 25.29 25.50 25.54 25.52 25.51
12/6/2022 13:00 to 12:10 25.50 25.48 25.34 25.45 25.48 25.31
12/6/2022 12:00 to 11:10 25.15 25.38 25.41 25.36 25.55 25.57
12/6/2022 11:00 to 10:10 25.37 25.73 25.41 25.58 25.50 25.62
12/6/2022 10:00 to 9:10 25.28 25.25 25.78 25.48 25.55 25.49
12/6/2022 09:00 to 8:10 25.51 25.28 25.45 25.32 25.36 25.50
12/6/2022 08:00 to 7:10 25.37 25.34 25.42 25.44 25.22 25.55
12/6/2022 07:00 to 6:10 25.36 25.34 25.54 25.49 25.42 25.36
12/6/2022 06:00 to 5:10 25.42 25.69 25.54 25.49 25.53 25.47
12/6/2022 05:00 to 4:10 25.45 25.44 25.78 25.52 25.58 25.49
12/6/2022 04:00 to 3:10 25.64 25.50 25.55 25.74 25.57 25.55
12/6/2022 03:00 to 2:10 25.63 25.54 25.53 25.40 25.66 25.64
12/6/2022 02:00 to 1:10 25.51 25.52 25.55 25.58 25.52 25.63
12/6/2022 01:00 to 0:10 25.32 25.39 25.46 25.59 25.29 25.42
12/6/2022 00:00 to 23:10 25.39 25.51 25.42 25.43 25.39 25.43
12/5/2022 23:00 to 22:10 25.42 25.20 25.02 25.03 25.02 24.90
12/5/2022 22:00 to 21:10 24.88 25.13 24.93 24.89 24.78 24.54
12/5/2022 21:00 to 20:10 24.47 24.23 24.03 24.00 23.92 24.10
12/5/2022 20:00 to 19:10 24.20 24.03 24.00 23.81 23.90 23.76
12/5/2022 19:00 to 18:10 23.96 23.67 23.57 23.42 22.98 22.98
12/5/2022 18:00 to 17:10 22.87 22.95 22.87 23.01 23.70 23.69
12/5/2022 17:00 to 16:10 23.74 23.86 24.06 24.31 24.37 24.61
12/5/2022 16:00 to 15:10 24.54 24.70 24.67 24.76 24.73 24.87
12/5/2022 15:00 to 14:10 25.18 25.36 25.00 24.69 24.73 24.77
12/5/2022 14:00 to 13:10 24.32 24.52 24.34 24.37 24.43 24.56
12/5/2022 13:00 to 12:10 24.49 24.97 25.15 25.28 25.15 25.12
12/5/2022 12:00 to 11:10 25.14 25.13 25.14 25.19 24.94 24.95
12/5/2022 11:00 to 10:10 25.02 25.03 25.09 25.27 25.24 25.25
12/5/2022 10:00 to 9:10 25.15 25.25 25.16 25.25 25.13 25.08
12/5/2022 09:00 to 8:10 24.98 24.96 25.01 25.00 24.88 24.94
12/5/2022 08:00 to 7:10 24.89 24.86 24.83 25.02 24.93 24.75
12/5/2022 07:00 to 6:10 24.94 24.86 24.62 24.68 24.68 24.65
12/5/2022 06:00 to 5:10 24.89 24.89 24.96 24.87 24.76 24.81
12/5/2022 05:00 to 4:10 24.87 24.93 24.78 24.84 25.07 24.95
12/5/2022 04:00 to 3:10 25.00 24.96 25.14 25.04 25.08 25.08
12/5/2022 03:00 to 2:10 25.01 25.00 25.14 24.93 24.98 24.98
12/5/2022 02:00 to 1:10 25.06 25.19 25.30 24.99 25.08 25.03
12/5/2022 01:00 to 0:10 24.94 24.87 25.12 24.85 24.73 24.77